This is the latest recevied weather packets stored in our database for station/object KY0TEQ-13. If no packets are shown the sender has not sent any weather packets the latest 10 day(s).
| Time | Temp. | Humidity | Pressure | Rain* | Wind** | Luminosity | Snow |
|---|---|---|---|---|---|---|---|
| 1777766651 | 17.22° C | 14% | 1305.2 hPa | 0 mm | - | 201 W/m² | - |
| 1777766348 | 17.22° C | 14% | 1305.5 hPa | 0 mm | - | 218 W/m² | - |
| 1777766045 | 17.78° C | 14% | 1305.2 hPa | 0 mm | - | 235 W/m² | - |
| 1777765742 | 17.22° C | 15% | 1305.4 hPa | 0 mm | - | 251 W/m² | - |
| 1777765439 | 17.22° C | 15% | 1305.4 hPa | 0 mm | - | 267 W/m² | - |
| 1777765136 | 17.78° C | 15% | 1305.4 hPa | 0 mm | - | 284 W/m² | - |
| 1777764831 | 17.78° C | 15% | 1305.5 hPa | 0 mm | - | 302 W/m² | - |
| 1777764529 | 17.22° C | 15% | 1305.2 hPa | 0 mm | - | 319 W/m² | - |
| 1777764225 | 17.22° C | 15% | 1305.5 hPa | 0 mm | - | 335 W/m² | - |
| 1777763921 | 17.22° C | 16% | 1305.6 hPa | 0 mm | - | 347 W/m² | - |
| 1777763619 | 17.22° C | 16% | 1305.7 hPa | 0 mm | - | 363 W/m² | - |
| 1777763317 | 17.22° C | 16% | 1305.5 hPa | 0 mm | - | 379 W/m² | - |
| 1777763015 | 17.22° C | 16% | 1305.6 hPa | 0 mm | - | 394 W/m² | - |
| 1777762712 | 16.67° C | 15% | 1305.6 hPa | 0 mm | - | 409 W/m² | - |
| 1777762408 | 17.22° C | 15% | 1305.5 hPa | 0 mm | - | 425 W/m² | - |
| 1777762105 | 16.67° C | 15% | 1305.6 hPa | 0 mm | - | 440 W/m² | - |
| 1777761801 | 17.78° C | 15% | 1305.6 hPa | 0 mm | - | 453 W/m² | - |
| 1777761499 | 17.78° C | 17% | 1305.5 hPa | 0 mm | - | 469 W/m² | - |
| 1777761192 | 16.67° C | 16% | 1305.8 hPa | 0 mm | - | 482 W/m² | - |
| 1777760889 | 16.67° C | 16% | 1305.7 hPa | 0 mm | - | 495 W/m² | - |
| 1777760586 | 17.22° C | 15% | 1305.6 hPa | 0 mm | - | 509 W/m² | - |
| 1777760282 | 17.78° C | 15% | 1306 hPa | 0 mm | - | 524 W/m² | - |
| 1777759978 | 17.22° C | 16% | 1306.1 hPa | 0 mm | - | 535 W/m² | - |
| 1777759676 | 17.78° C | 15% | 1306.1 hPa | 0 mm | - | 548 W/m² | - |
| 1777759371 | 18.33° C | 15% | 1306.2 hPa | 0 mm | - | 562 W/m² | - |
* Rain latest hour (hover to see other rain measurements)
** Current wind speed in m/s (hover to see current wind gust speed)